Change the Weather History Date:

Monday, April 8, 2013

  Actual Average (PASK) Record (PASK)
Temperature  
Mean Temperature -4 °F -  
Max Temperature -9 °F 19 °F 39 °F (1997)
Min Temperature -16 °F 5 °F -22 °F (2003)
Degree Days  
Heating Degree Days 69    
Moisture  
Dew Point -16 °F    
Average Humidity 56    
Maximum Humidity 75    
Minimum Humidity 38    
Precipitation  
Precipitation 0.00 in - - ()
Sea Level Pressure  
Sea Level Pressure 30.11 in    
Wind  
Wind Speed 1 mph (SW)    
Max Wind Speed 7 mph    
Max Gust Speed -    
Visibility 10 miles    
Events      
Averages and records for this station are not official NWS values.
T = Trace of Precipitation, MM = Missing Value Source: NWS Daily Summary

Daily Weather History Graph

Daily Weather History Graph

Search for Another Location

Airport or City:

Trip Planner

Search our weather history database for the weather conditions in past years. The results will help you decide how hot, cold, wet, or windy it might be!

Date:

Astronomy

Apr. 08, 2013 Rise Set
Actual Time 7:22 AM AKDT 10:06 PM AKDT
Civil Twilight 6:22 AM AKDT 11:06 PM AKDT
Nautical Twilight 4:54 AM AKDT 12:37 AM AKDT
Astronomical Twilight Sun does not rise Sun does not rise
Moon 6:53 AM AKDT (4/8) 8:33 PM AKDT (4/8)
Length of Visible Light 16h 43m
Length of Day
14h 43m
Waning Crescent, 3% of the Moon is Illuminated
Apr 8
Waning Crescent
Apr 10
New
Apr 18
First Quarter
Apr 25
Full
May 2
Last Quarter

Hourly Weather History & Observations

Time (AKDT) Temp. Windchill Dew Point Humidity Pressure Visibility Wind Dir Wind Speed Gust Speed Precip Events Conditions
12:01 AM -7.1 °F - -18.9 °F 56% 30.13 in 10.0 mi Calm Calm - N/A   Clear
1:01 AM -11.9 °F - -20.9 °F 64% 30.14 in 10.0 mi Calm Calm - N/A   Clear
2:01 AM -14.1 °F - -23.1 °F 64% 30.15 in 10.0 mi Calm Calm - N/A   Clear
3:01 AM -13.0 °F - -20.9 °F 68% 30.15 in 10.0 mi Calm Calm - N/A   Clear
4:01 AM -15.0 °F -25.0 °F -23.1 °F 67% 30.14 in 10.0 mi West 3.5 mph - N/A   Clear
5:01 AM -14.1 °F - -22.0 °F 68% 30.14 in 10.0 mi Calm Calm - N/A   Clear
6:01 AM -16.1 °F - -23.1 °F 71% 30.14 in 10.0 mi Calm Calm - N/A   Clear
7:01 AM -15.0 °F - -22.0 °F 71% 30.15 in 10.0 mi Calm Calm - N/A   Clear
8:01 AM -14.1 °F - -20.0 °F 75% 30.15 in 9.0 mi Calm Calm - N/A   Partly Cloudy
9:01 AM -11.9 °F - -18.9 °F 71% 30.16 in 9.0 mi Calm Calm - N/A   Clear
10:01 AM -0.0 °F - -16.1 °F 47% 30.15 in 10.0 mi Calm Calm - N/A   Partly Cloudy
11:01 AM 1.0 °F - -16.1 °F 45% 30.16 in 10.0 mi Calm Calm - N/A   Clear
12:01 PM 1.9 °F -7.6 °F -16.1 °F 43% 30.15 in 10.0 mi SW 4.6 mph - N/A   Clear
1:01 PM 3.9 °F - -15.0 °F 41% 30.15 in 10.0 mi Calm Calm - N/A   Clear
2:01 PM 7.0 °F 0.1 °F -14.1 °F 38% 30.14 in 10.0 mi SSE 3.5 mph - N/A   Clear
3:01 PM 6.1 °F -2.8 °F -13.0 °F 41% 30.12 in 10.0 mi SSW 4.6 mph - N/A   Clear
4:01 PM 7.0 °F -3.3 °F -11.0 °F 44% 30.10 in 10.0 mi South 5.8 mph - N/A   Clear
5:01 PM 8.1 °F 1.4 °F -11.0 °F 42% 30.09 in 10.0 mi Variable 3.5 mph - N/A   Clear
6:01 PM 5.0 °F -5.6 °F -11.0 °F 48% 30.07 in 10.0 mi WSW 5.8 mph - N/A   Clear
7:01 PM 7.0 °F 0.1 °F -11.0 °F 44% 30.06 in 10.0 mi WSW 3.5 mph - N/A   Clear
8:01 PM 6.1 °F -5.6 °F -9.9 °F 48% 30.04 in 10.0 mi WSW 6.9 mph - N/A   Clear
9:01 PM 3.0 °F -4.4 °F -9.9 °F 55% 30.03 in 10.0 mi SW 3.5 mph - N/A   Clear
10:01 PM -2.0 °F -15.4 °F -14.1 °F 57% 30.01 in 10.0 mi NNW 6.9 mph - N/A   Clear
11:01 PM -6.0 °F - -14.1 °F 68% 30.00 in 10.0 mi Calm Calm - N/A   Clear